Weather History for Cape Cod CGAS, MA

Change the Weather History Date:

Tuesday, October 8, 2013

  Actual Average Record
Temperature  
Mean Temperature 55 °F -  
Max Temperature 66 °F 61 °F 75 °F (2005)
Min Temperature 44 °F 44 °F 28 °F (1999)
Degree Days  
Heating Degree Days 10    
Growing Degree Days 5 (Base 50)    
Moisture  
Dew Point 48 °F    
Average Humidity 71    
Maximum Humidity 94    
Minimum Humidity 41    
Precipitation  
Precipitation 0.00 in - - ()
Sea Level Pressure  
Sea Level Pressure 30.16 in    
Wind  
Wind Speed 8 mph (North)    
Max Wind Speed 20 mph    
Max Gust Speed 21 mph    
Visibility 10 miles    
Events Rain    
Averages and records for this station are not official NWS values.
T = Trace of Precipitation, MM = Missing Value Source: NWS Daily Summary

Daily Weather History Graph

Daily Weather History Graph

Search for Another Location

Airport:

Trip Planner

Search our weather history database for the weather conditions in past years. The results will help you decide how hot, cold, wet, or windy it might be!

Date:

Astronomy

Oct. 08, 2013 Rise Set
Actual Time 6:46 AM EDT 6:11 PM EDT
Civil Twilight 6:18 AM EDT 6:39 PM EDT
Nautical Twilight 5:46 AM EDT 7:11 PM EDT
Astronomical Twilight 5:14 AM EDT 7:43 PM EDT
Moon 10:40 AM EDT (10/8) 8:42 PM EDT (10/8)
Length of Visible Light 12h 20m
Length of Day
11h 25m
Waxing Crescent, 16% of the Moon is Illuminated
Oct 8
Waxing Crescent
Oct 11
First Quarter
Oct 18
Full
Oct 26
Last Quarter
Nov 3
New

Hourly Weather History & Observations

Time (EDT) Temp. Dew Point Humidity Pressure Visibility Wind Dir Wind Speed Gust Speed Precip Events Conditions
12:15 AM 66.2 °F 64.4 °F 94% 29.91 in 2.5 mi SW 6.9 mph - N/A Rain Light Rain
12:35 AM 66.2 °F 64.4 °F 94% 29.91 in 7.0 mi SW 10.4 mph - 0.01 in   Overcast
12:55 AM 66.2 °F 64.4 °F 94% 29.91 in 6.0 mi West 8.1 mph - 0.01 in   Overcast
1:15 AM 66.2 °F 64.4 °F 94% 29.92 in 7.0 mi West 10.4 mph - N/A   Overcast
1:35 AM 62.6 °F 59.0 °F 88% 29.94 in 10.0 mi NNW 8.1 mph 16.1 mph N/A   Overcast
1:55 AM 60.8 °F 59.0 °F 94% 29.95 in 10.0 mi NW 6.9 mph - N/A   Overcast
2:15 AM 59.0 °F 53.6 °F 82% 29.96 in 10.0 mi NW 9.2 mph 16.1 mph N/A   Overcast
2:35 AM 59.0 °F 51.8 °F 77% 29.96 in 10.0 mi NNW 8.1 mph - N/A   Overcast
2:55 AM 57.2 °F 51.8 °F 82% 29.97 in 10.0 mi NW 6.9 mph - N/A   Overcast
3:15 AM 59.0 °F 50.0 °F 72% 29.98 in 10.0 mi NW 9.2 mph - N/A   Overcast
3:35 AM 59.0 °F 50.0 °F 72% 29.99 in 10.0 mi NW 6.9 mph - N/A   Overcast
3:55 AM 59.0 °F 48.2 °F 67% 30.00 in 10.0 mi NW 8.1 mph - N/A   Overcast
4:15 AM 57.2 °F 48.2 °F 72% 30.01 in 10.0 mi NW 9.2 mph - N/A   Overcast
4:35 AM 57.2 °F 46.4 °F 67% 30.01 in 10.0 mi NW 10.4 mph - N/A   Mostly Cloudy
4:55 AM 57.2 °F 46.4 °F 67% 30.02 in 10.0 mi NW 5.8 mph - N/A   Scattered Clouds
5:15 AM 55.4 °F 46.4 °F 72% 30.03 in 10.0 mi NW 9.2 mph - N/A   Scattered Clouds
5:35 AM 55.4 °F 46.4 °F 72% 30.04 in 10.0 mi NW 9.2 mph - N/A   Scattered Clouds
5:55 AM 55.4 °F 46.4 °F 72% 30.05 in 10.0 mi NW 8.1 mph - N/A   Clear
6:15 AM 53.6 °F 46.4 °F 77% 30.06 in 10.0 mi NW 9.2 mph - N/A   Partly Cloudy
6:35 AM 53.6 °F 48.2 °F 82% 30.07 in 10.0 mi NW 8.1 mph - N/A   Clear
6:55 AM 53.6 °F 46.4 °F 77% 30.09 in 10.0 mi NW 6.9 mph - N/A   Clear
7:15 AM 53.6 °F 46.4 °F 77% 30.10 in 10.0 mi NW 10.4 mph 16.1 mph N/A   Clear
7:35 AM 53.6 °F 46.4 °F 77% 30.11 in 10.0 mi NW 9.2 mph - N/A   Clear
7:55 AM 55.4 °F 46.4 °F 72% 30.12 in 10.0 mi NW 6.9 mph - N/A   Clear
8:15 AM 55.4 °F 46.4 °F 72% 30.14 in 10.0 mi NNW 9.2 mph - N/A   Clear
8:35 AM 57.2 °F 46.4 °F 67% 30.15 in 10.0 mi NNW 5.8 mph - N/A   Clear
8:55 AM 57.2 °F 46.4 °F 67% 30.15 in 10.0 mi NNW 11.5 mph 16.1 mph N/A   Clear
9:15 AM 55.4 °F 46.4 °F 72% 30.16 in 10.0 mi NNW 6.9 mph - N/A   Clear
9:35 AM 55.4 °F 46.4 °F 72% 30.17 in 10.0 mi NNW 8.1 mph - N/A   Clear
9:55 AM 59.0 °F 46.4 °F 63% 30.17 in 10.0 mi NNW 9.2 mph - N/A   Clear
10:15 AM 59.0 °F 46.4 °F 63% 30.18 in 10.0 mi NNW 8.1 mph - N/A   Clear
10:35 AM 59.0 °F 46.4 °F 63% 30.19 in 10.0 mi NNW 10.4 mph - N/A   Clear
10:55 AM 62.6 °F 42.8 °F 48% 30.18 in 10.0 mi North 10.4 mph - N/A   Clear
11:15 AM 62.6 °F 44.6 °F 52% 30.18 in 10.0 mi North 8.1 mph - N/A   Clear
11:35 AM 62.6 °F 42.8 °F 48% 30.19 in 10.0 mi North 11.5 mph - N/A   Clear
11:55 AM 64.4 °F 46.4 °F 52% 30.19 in 10.0 mi NNE 8.1 mph - N/A   Clear
12:15 PM 64.4 °F 46.4 °F 52% 30.19 in 10.0 mi NNE 8.1 mph 16.1 mph N/A   Clear
12:35 PM 62.6 °F 44.6 °F 52% 30.19 in 10.0 mi NNE 12.7 mph 16.1 mph N/A   Clear
12:55 PM 62.6 °F 46.4 °F 55% 30.19 in 10.0 mi NE 11.5 mph - N/A   Clear
1:15 PM 62.6 °F 46.4 °F 55% 30.18 in 10.0 mi NNE 9.2 mph 17.3 mph N/A   Clear
1:35 PM 62.6 °F 46.4 °F 55% 30.18 in 10.0 mi NE 13.8 mph 19.6 mph N/A   Clear
1:55 PM 62.6 °F 44.6 °F 52% 30.19 in 10.0 mi NE 16.1 mph 20.7 mph N/A   Clear
2:15 PM 62.6 °F 44.6 °F 52% 30.19 in 10.0 mi NNE 15.0 mph 20.7 mph N/A   Clear
2:35 PM 62.6 °F 44.6 °F 52% 30.20 in 10.0 mi NNE 13.8 mph 18.4 mph N/A   Clear
2:55 PM 62.6 °F 44.6 °F 52% 30.21 in 10.0 mi NNE 12.7 mph 20.7 mph N/A   Clear
3:15 PM 62.6 °F 44.6 °F 52% 30.21 in 10.0 mi NNE 13.8 mph 19.6 mph N/A   Clear
3:35 PM 62.6 °F 44.6 °F 52% 30.22 in 10.0 mi NNE 10.4 mph 16.1 mph N/A   Clear
3:55 PM 62.6 °F 44.6 °F 52% 30.22 in 10.0 mi NE 12.7 mph 17.3 mph N/A   Clear
4:15 PM 62.6 °F 44.6 °F 52% 30.23 in 10.0 mi NNE 9.2 mph - N/A   Clear
4:35 PM 59.0 °F 46.4 °F 63% 30.23 in 10.0 mi NE 8.1 mph - N/A   Clear
4:55 PM 59.0 °F 46.4 °F 63% 30.24 in 10.0 mi NE 8.1 mph - N/A   Clear
5:15 PM 57.2 °F 46.4 °F 67% 30.25 in 10.0 mi NE 8.1 mph - N/A   Clear
5:35 PM 57.2 °F 46.4 °F 67% 30.26 in 10.0 mi NE 6.9 mph - N/A   Clear
5:55 PM 55.4 °F 48.2 °F 77% 30.26 in 10.0 mi NE 4.6 mph - N/A   Clear
6:15 PM 55.4 °F 48.2 °F 77% 30.27 in 10.0 mi NNE 6.9 mph - N/A   Clear
6:35 PM 53.6 °F 46.4 °F 77% 30.27 in 10.0 mi NE 6.9 mph - N/A   Clear
6:55 PM 55.4 °F 46.4 °F 72% 30.27 in 10.0 mi NE 6.9 mph - N/A   Clear
7:15 PM 53.6 °F 46.4 °F 77% 30.28 in 10.0 mi NNE 4.6 mph - N/A   Clear
7:35 PM 53.6 °F 46.4 °F 77% 30.29 in 10.0 mi NE 5.8 mph - N/A   Clear
7:55 PM 53.6 °F 46.4 °F 77% 30.30 in 10.0 mi NE 5.8 mph - N/A   Clear
8:15 PM 53.6 °F 46.4 °F 77% 30.31 in 10.0 mi North 3.5 mph - N/A   Clear
8:35 PM 51.8 °F 44.6 °F 76% 30.31 in 10.0 mi NNE 3.5 mph - N/A   Clear
8:55 PM 51.8 °F 46.4 °F 82% 30.31 in 10.0 mi North 4.6 mph - N/A   Clear
9:15 PM 51.8 °F 44.6 °F 76% 30.32 in 10.0 mi NNE 3.5 mph - N/A   Clear
9:35 PM 50.0 °F 44.6 °F 82% 30.33 in 10.0 mi North 3.5 mph - N/A   Clear
9:55 PM 48.2 °F 44.6 °F 87% 30.33 in 10.0 mi Calm Calm - N/A   Mostly Cloudy
10:15 PM 48.2 °F 44.6 °F 87% 30.34 in 10.0 mi Calm Calm - N/A   Mostly Cloudy
10:35 PM 48.2 °F 44.6 °F 87% 30.34 in 10.0 mi Calm Calm - N/A   Scattered Clouds
10:55 PM 46.4 °F 44.6 °F 93% 30.35 in 10.0 mi Calm Calm - N/A   Partly Cloudy
11:15 PM 46.4 °F 44.6 °F 93% 30.35 in 10.0 mi Calm Calm - N/A   Scattered Clouds
11:35 PM 44.6 °F 42.8 °F 93% 30.35 in 10.0 mi Calm Calm - N/A   Scattered Clouds
11:55 PM 44.6 °F 42.8 °F 93% 30.35 in 10.0 mi Calm Calm - N/A   Partly Cloudy